Flag for U.S.A. Weather past 2 weeks in Victorville, California, U.S.A.

Now
54 °F

Cool.


Feels Like: 54 °F
Forecast: 35 / 70 °F
Wind: No wind

Location: George Air Force Base / Victorvi

Current Time: Mar 6, 2015 at 9:50:19 AM

Latest Report: Mar 6, 2015 at 9:15 AM


Visibility: 10 mi

Pressure: 30.30 "Hg

Humidity: 22%

Dew point: 16 °F

Location of VictorvilleLocation

Historic Weather in Victorville — Graph

°F

Victorville temperature yesterday

Maximum temperature yesterday: 64 °F (at 1:35 PM)
Minimum temperature yesterday: 27 °F (at 5:35 AM)
Average temperature yesterday: 46 °F

Past Weeks' High & Low Weather Summary

 TemperatureHumidityPressure
High79 °F (Feb 19, 2:55 PM)100% (Feb 22, 11:15 PM)30.37 "Hg (Feb 22, 11:15 PM)
Low27 °F (Mar 5, 5:35 AM)9% (Feb 19, 2:55 PM)29.70 "Hg (Feb 27, 3:35 PM)
Average49 °F53%29.98 "Hg
* Reported Feb 19 8:15 AM — Mar 6 8:55 AM, Victorville, Weather by CustomWeather, © 2015

Note: Actual official high and low records may vary slightly from our data, if they occured in-between our weather recording intervals... More about our weather records

Advertising

Victorville weather history for previous 24 hours

 ConditionsComfort  
Time TempWeatherWind HumidityBarometerVisibility
8:55 AM
Fri, Mar 6
52 °FCool.No wind24%30.30 "Hg10 mi
8:35 AM50 °FCool.3 mph28%30.30 "Hg10 mi
8:15 AM46 °FCool.6 mph32%30.30 "Hg10 mi
7:55 AM45 °FQuite cool.6 mph34%30.30 "Hg10 mi
7:35 AM43 °FQuite cool.6 mph36%30.30 "Hg10 mi
7:15 AM39 °FChilly.6 mph42%30.29 "Hg10 mi
6:55 AM37 °FChilly.6 mph45%30.29 "Hg10 mi
6:35 AM36 °FChilly.6 mph44%30.29 "Hg10 mi
6:15 AM36 °FChilly.7 mph44%30.29 "Hg10 mi
5:55 AM36 °FChilly.6 mph44%30.28 "Hg10 mi
5:15 AM34 °FChilly.7 mph48%30.28 "Hg10 mi
4:55 AM34 °FChilly.6 mph48%30.28 "Hg10 mi
4:15 AM36 °FChilly.6 mph44%30.28 "Hg10 mi
3:55 AM34 °FChilly.7 mph48%30.27 "Hg10 mi
3:35 AM34 °FChilly.5 mph41%30.27 "Hg10 mi
3:15 AM36 °FChilly.3 mph38%30.28 "Hg10 mi
2:55 AM37 °FChilly.No wind35%30.28 "Hg10 mi
2:35 AM36 °FChilly.No wind38%30.28 "Hg10 mi
2:15 AM34 °FChilly.No wind41%30.28 "Hg10 mi
1:55 AM34 °FChilly.5 mph41%30.29 "Hg10 mi
1:35 AM34 °FChilly.No wind41%30.29 "Hg10 mi
1:15 AM34 °FChilly.No wind41%30.30 "Hg10 mi
12:55 AM36 °FChilly.No wind38%30.30 "Hg10 mi
12:35 AM39 °FChilly.No wind33%30.30 "Hg10 mi
12:15 AM39 °FChilly.No wind33%30.30 "Hg10 mi
11:55 PM
Thu, Mar 5
37 °FChilly.No wind35%30.30 "Hg10 mi
11:35 PM37 °FChilly.3 mph35%30.30 "Hg10 mi
11:15 PM36 °FChilly.No wind38%30.31 "Hg10 mi
10:55 PM37 °FChilly.3 mph35%30.31 "Hg10 mi
10:35 PM39 °FClear.No wind33%30.31 "Hg10 mi
10:15 PM41 °FQuite cool.3 mph31%30.31 "Hg10 mi
9:55 PM39 °FChilly.3 mph33%30.31 "Hg10 mi
9:35 PM41 °FQuite cool.No wind31%30.31 "Hg10 mi
9:15 PM43 °FClear.7 mph29%30.30 "Hg10 mi
8:55 PM45 °FClear.5 mph27%30.30 "Hg10 mi
8:35 PM45 °FClear.6 mph25%30.30 "Hg10 mi
8:15 PM48 °FClear.3 mph20%30.30 "Hg10 mi
7:55 PM54 °FClear.5 mph15%30.30 "Hg10 mi
7:35 PM54 °FClear.6 mph15%30.29 "Hg10 mi
6:55 PM54 °FClear.6 mph15%30.29 "Hg10 mi
6:35 PM55 °FClear.3 mph13%30.29 "Hg10 mi
6:15 PM55 °FClear.5 mph13%30.28 "Hg10 mi
5:55 PM57 °FClear.5 mph13%30.28 "Hg10 mi
5:35 PM61 °FSunny.7 mph12%30.28 "Hg10 mi
5:15 PM63 °FSunny.9 mph12%30.28 "Hg10 mi
4:55 PM63 °FSunny.12 mph12%30.28 "Hg10 mi
4:35 PM64 °FSunny.10 mph11%30.28 "Hg10 mi
4:15 PM64 °FSunny.15 mph12%30.27 "Hg10 mi
3:55 PM64 °FSunny.13 mph11%30.28 "Hg10 mi
3:35 PM64 °FSunny.15 mph10%30.28 "Hg10 mi
3:15 PM64 °FSunny.18 mph11%30.28 "Hg10 mi
2:55 PM64 °FSunny.15 mph10%30.28 "Hg10 mi
2:35 PM64 °FSunny.12 mph10%30.28 "Hg10 mi
1:55 PM64 °FScattered clouds.13 mph11%30.29 "Hg10 mi
1:35 PM64 °FScattered clouds.9 mph12%30.30 "Hg10 mi
12:55 PM63 °FSunny.7 mph14%30.32 "Hg10 mi
12:35 PM63 °FScattered clouds.15 mph14%30.33 "Hg10 mi
12:15 PM61 °FScattered clouds.9 mph16%30.34 "Hg10 mi
11:55 AM61 °FScattered clouds.10 mph15%30.35 "Hg10 mi
11:15 AM59 °FRefreshingly cool.10 mph17%30.36 "Hg10 mi
10:55 AM57 °FRefreshingly cool.6 mph20%30.36 "Hg10 mi
10:35 AM57 °FRefreshingly cool.8 mph20%30.37 "Hg10 mi
9:55 AM54 °FCool.6 mph22%30.37 "Hg10 mi
9:35 AM52 °FCool.No wind22%30.37 "Hg10 mi
9:15 AM48 °FCool.No wind25%30.37 "Hg10 mi
Weather by CustomWeather, © 2015

See weather overviewHow to use our weather pages